EDT,Max TemperatureF,Mean TemperatureF,Min TemperatureF,Max Dew PointF,MeanDew PointF,Min DewpointF,Max Humidity, Mean Humidity, Min Humidity, Max Sea Level PressureIn, Mean Sea Level PressureIn, Min Sea Level PressureIn, Max VisibilityMiles, Mean VisibilityMiles, Min VisibilityMiles, Max Wind SpeedMPH, Mean Wind SpeedMPH, Max Gust SpeedMPH,PrecipitationIn, CloudCover, Events, WindDirDegrees
2012-9-1,95,84,73,75,72,68,100,74,44,30.18,30.13,30.06,10,10,7,12,2,16,0.00,1,,272
2012-9-2,91,81,71,77,73,70,100,87,49,30.10,30.03,29.97,10,10,4,13,2,18,0.17,1,Rain-Thunderstorm,231
2012-9-3,86,78,71,77,74,70,100,96,66,30.04,30.00,29.95,10,8,1,12,1,18,1.35,5,Rain-Thunderstorm,149
2012-9-4,84,78,73,77,74,73,100,93,70,30.00,29.97,29.93,10,7,1,8,1,,0.24,6,Rain-Thunderstorm,176
2012-9-5,86,80,73,77,73,72,100,88,62,29.99,29.94,29.90,10,8,1,9,2,,0.02,5,Rain,217
2012-9-6,87,79,71,77,74,70,100,88,62,29.99,29.94,29.90,10,7,2,9,3,17,0.03,4,Rain-Thunderstorm,225
2012-9-7,87,78,69,77,73,70,100,86,58,30.01,29.95,29.88,10,8,2,8,2,,0.00,3,,77
2012-9-8,91,80,69,75,72,68,100,91,49,29.89,29.81,29.73,10,7,0,10,2,21,0.25,5,Fog-Rain-Thunderstorm,236
2012-9-9,80,71,62,68,58,52,94,64,37,30.03,29.94,29.86,10,10,10,13,6,18,0.00,3,,13
2012-9-10,80,70,60,66,58,54,94,66,39,30.16,30.10,30.03,10,10,10,6,3,,0.00,2,,21
2012-9-11,80,72,64,66,63,59,100,78,51,30.31,30.25,30.16,10,10,10,7,2,,0.00,5,,57
2012-9-12,82,72,62,64,62,59,100,78,45,30.37,30.30,30.26,10,10,10,9,1,,0.00,2,,79
2012-9-13,80,70,59,64,60,55,100,75,44,30.37,30.31,30.26,10,10,10,7,2,,0.00,2,,43
2012-9-14,82,72,62,68,62,57,100,74,45,30.28,30.23,30.18,10,10,10,7,3,,0.00,3,,46
2012-9-15,86,75,64,70,64,61,100,74,43,30.22,30.16,30.10,10,10,10,7,2,,0.00,2,,52
2012-9-16,80,74,68,72,69,66,100,88,65,30.16,30.11,30.05,10,10,5,6,2,,0.04,4,Rain,39
2012-9-17,78,73,68,73,71,68,100,97,78,30.10,30.02,29.87,10,6,1,9,2,,0.37,7,Rain,81
2012-9-18,77,73,69,73,71,66,100,95,78,29.86,29.78,29.73,10,9,4,10,6,20,0.40,6,Rain,221
2012-9-19,78,69,60,68,59,55,100,74,47,30.13,30.02,29.88,10,10,10,12,6,,0.00,1,,25
2012-9-20,78,68,59,64,61,59,100,81,54,30.18,30.12,30.06,10,10,7,6,1,,0.00,2,,101
2012-9-21,82,70,59,68,63,59,100,81,51,30.10,30.06,30.00,10,9,5,10,1,,0.00,2,,222
2012-9-22,86,75,64,68,64,59,100,73,45,30.02,29.99,29.93,10,10,7,12,5,20,0.00,0,,239
2012-9-23,78,66,53,59,51,41,100,59,30,30.14,30.09,30.03,10,10,10,10,4,,0.00,1,,332
2012-9-24,73,62,51,54,45,39,94,57,35,30.25,30.20,30.14,10,10,10,12,6,18,0.00,0,,48
2012-9-25,78,64,50,63,56,50,100,80,51,30.25,30.21,30.18,10,10,10,7,1,,0.00,1,,209
2012-9-26,82,70,57,64,60,57,100,80,45,30.24,30.20,30.16,10,10,7,8,1,,0.00,0,,211
2012-9-27,86,70,53,66,60,54,100,75,40,30.22,30.17,30.11,10,10,2,9,1,,0.00,1,,304
2012-9-28,86,73,60,68,63,61,100,77,45,30.14,30.07,29.99,10,10,7,12,1,,0.00,1,Thunderstorm,244
2012-9-29,78,71,64,70,67,63,100,93,65,30.04,29.96,29.86,10,9,5,10,2,,0.02,4,Rain,257
2012-9-30,73,68,62,64,60,55,100,80,53,29.94,29.90,29.85,10,9,2,7,3,,0.00,4,,56